Time,TemperatureF,DewpointF,PressureIn,WindDirection,WindDirectionDegrees,WindSpeedMPH,WindSpeedGustMPH,Humidity,HourlyPrecipIn,Conditions,Clouds,dailyrainin,SoftwareType,DateUTC
2013-08-06 00:00:00,56.1,55.0,29.76,West,275,0.0,0.0,96,0.00,,,0.00,Wunderground v.1.15,2013-08-06 04:00:00,
2013-08-06 00:05:00,56.0,54.9,29.76,West,275,0.0,0.0,96,0.00,,,0.00,Wunderground v.1.15,2013-08-06 04:05:00,
2013-08-06 00:10:00,55.8,54.7,29.76,West,275,0.0,0.0,96,0.00,,,0.00,Wunderground v.1.15,2013-08-06 04:10:00,
2013-08-06 00:15:00,55.8,54.7,29.76,West,275,0.0,0.0,96,0.00,,,0.00,Wunderground v.1.15,2013-08-06 04:15:00,
2013-08-06 00:20:00,55.7,54.6,29.76,West,275,0.0,0.0,96,0.00,,,0.00,Wunderground v.1.15,2013-08-06 04:20:00,
2013-08-06 00:30:00,55.7,54.6,29.76,West,275,0.0,0.0,96,0.00,,,0.00,Wunderground v.1.15,2013-08-06 04:30:00,
2013-08-06 00:40:00,55.5,54.4,29.76,West,275,0.0,0.0,96,0.00,,,0.00,Wunderground v.1.15,2013-08-06 04:40:00,
2013-08-06 00:45:00,55.5,54.4,29.76,West,275,0.0,0.0,96,0.00,,,0.00,Wunderground v.1.15,2013-08-06 04:45:00,
2013-08-06 00:55:00,55.4,54.3,29.76,West,275,0.0,0.0,96,0.00,,,0.00,Wunderground v.1.15,2013-08-06 04:55:00,
2013-08-06 01:00:00,55.3,54.2,29.76,West,275,0.0,0.0,96,0.00,,,0.00,Wunderground v.1.15,2013-08-06 05:00:00,
2013-08-06 01:05:00,55.1,54.0,29.76,West,275,0.0,0.0,96,0.00,,,0.00,Wunderground v.1.15,2013-08-06 05:05:00,
2013-08-06 01:15:00,55.0,54.2,29.76,West,275,0.0,0.0,97,0.00,,,0.00,Wunderground v.1.15,2013-08-06 05:15:00,
2013-08-06 01:20:00,54.9,54.1,29.76,West,275,0.0,0.0,97,0.00,,,0.00,Wunderground v.1.15,2013-08-06 05:20:00,
2013-08-06 01:25:00,54.9,54.1,29.76,West,275,0.0,0.0,97,0.00,,,0.00,Wunderground v.1.15,2013-08-06 05:25:00,
2013-08-06 01:30:00,54.9,54.1,29.76,West,275,0.0,0.0,97,0.00,,,0.00,Wunderground v.1.15,2013-08-06 05:30:00,
2013-08-06 01:40:00,55.3,54.5,29.76,West,275,0.0,0.0,97,0.00,,,0.00,Wunderground v.1.15,2013-08-06 05:40:00,
2013-08-06 01:45:00,55.4,54.6,29.76,West,275,0.0,0.0,97,0.00,,,0.00,Wunderground v.1.15,2013-08-06 05:45:00,
2013-08-06 01:55:00,55.5,54.7,29.76,West,275,0.0,0.0,97,0.00,,,0.00,Wunderground v.1.15,2013-08-06 05:55:00,
2013-08-06 02:00:00,55.5,54.7,29.76,West,275,0.0,0.0,97,0.00,,,0.00,Wunderground v.1.15,2013-08-06 06:00:00,
2013-08-06 02:05:00,55.6,54.8,29.76,West,275,0.0,0.0,97,0.00,,,0.00,Wunderground v.1.15,2013-08-06 06:05:00,
2013-08-06 02:15:00,55.9,55.3,29.76,West,275,0.0,0.0,98,0.00,,,0.00,Wunderground v.1.15,2013-08-06 06:15:00,
2013-08-06 02:25:00,56.2,55.6,29.76,West,275,0.0,0.0,98,0.00,,,0.00,Wunderground v.1.15,2013-08-06 06:25:00,
2013-08-06 02:35:00,56.2,55.6,29.76,West,275,0.0,0.0,98,0.00,,,0.00,Wunderground v.1.15,2013-08-06 06:35:00,
2013-08-06 02:45:00,56.3,55.7,29.76,West,275,0.0,0.0,98,0.00,,,0.00,Wunderground v.1.15,2013-08-06 06:45:00,
2013-08-06 02:55:00,56.4,55.8,29.76,West,275,0.0,0.0,98,0.00,,,0.00,Wunderground v.1.15,2013-08-06 06:55:00,
2013-08-06 03:06:00,56.4,55.8,29.76,West,275,0.0,0.0,98,0.00,,,0.00,Wunderground v.1.15,2013-08-06 07:06:00,
2013-08-06 03:15:00,56.5,55.9,29.76,West,275,0.0,0.0,98,0.00,,,0.00,Wunderground v.1.15,2013-08-06 07:15:00,
2013-08-06 03:25:00,56.7,56.1,29.76,West,275,0.0,0.0,98,0.00,,,0.00,Wunderground v.1.15,2013-08-06 07:25:00,
2013-08-06 03:35:00,56.7,56.1,29.76,West,275,0.0,0.0,98,0.00,,,0.00,Wunderground v.1.15,2013-08-06 07:35:00,
2013-08-06 03:45:00,56.6,56.0,29.76,West,275,0.0,0.0,98,0.00,,,0.00,Wunderground v.1.15,2013-08-06 07:45:00,
2013-08-06 03:55:00,56.6,56.0,29.76,West,275,0.0,0.0,98,0.00,,,0.00,Wunderground v.1.15,2013-08-06 07:55:00,
2013-08-06 04:06:00,56.7,56.1,29.76,West,275,0.0,0.0,98,0.00,,,0.00,Wunderground v.1.15,2013-08-06 08:06:00,
2013-08-06 04:15:00,56.6,56.0,29.76,West,275,0.0,0.0,98,0.00,,,0.00,Wunderground v.1.15,2013-08-06 08:15:00,
2013-08-06 04:25:00,56.5,55.9,29.76,West,275,0.0,0.0,98,0.00,,,0.00,Wunderground v.1.15,2013-08-06 08:25:00,
2013-08-06 04:30:00,56.4,55.6,29.76,West,275,0.0,0.0,97,0.00,,,0.00,Wunderground v.1.15,2013-08-06 08:30:00,
2013-08-06 04:40:00,56.4,55.8,29.76,West,275,0.0,0.0,98,0.00,,,0.00,Wunderground v.1.15,2013-08-06 08:40:00,
2013-08-06 04:50:00,56.5,55.9,29.76,West,275,0.0,0.0,98,0.00,,,0.00,Wunderground v.1.15,2013-08-06 08:50:00,
2013-08-06 05:00:00,56.6,56.0,29.76,West,275,0.0,0.0,98,0.00,,,0.00,Wunderground v.1.15,2013-08-06 09:00:00,
2013-08-06 05:05:00,56.6,56.0,29.76,West,275,0.0,0.0,98,0.00,,,0.00,Wunderground v.1.15,2013-08-06 09:05:00,
2013-08-06 05:15:00,56.4,55.8,29.76,West,275,0.0,0.0,98,0.00,,,0.00,Wunderground v.1.15,2013-08-06 09:15:00,
2013-08-06 05:20:00,56.4,55.8,29.77,West,275,0.0,0.0,98,0.00,,,0.00,Wunderground v.1.15,2013-08-06 09:20:00,
2013-08-06 05:30:00,56.1,55.5,29.77,West,275,0.0,0.0,98,0.00,,,0.00,Wunderground v.1.15,2013-08-06 09:30:00,
2013-08-06 05:40:00,55.8,55.2,29.77,West,275,0.0,0.0,98,0.00,,,0.00,Wunderground v.1.15,2013-08-06 09:40:00,
2013-08-06 05:50:00,55.7,54.9,29.77,West,275,0.0,0.0,97,0.00,,,0.00,Wunderground v.1.15,2013-08-06 09:50:00,
2013-08-06 05:55:00,55.8,55.2,29.77,West,275,0.0,0.0,98,0.00,,,0.00,Wunderground v.1.15,2013-08-06 09:55:00,
2013-08-06 06:06:00,55.9,55.3,29.77,West,275,0.0,0.0,98,0.00,,,0.00,Wunderground v.1.15,2013-08-06 10:06:00,
2013-08-06 06:15:00,56.1,55.5,29.77,West,275,0.0,0.0,98,0.00,,,0.00,Wunderground v.1.15,2013-08-06 10:15:00,
2013-08-06 06:25:00,56.3,55.7,29.77,West,275,0.0,0.0,98,0.00,,,0.00,Wunderground v.1.15,2013-08-06 10:25:00,
2013-08-06 06:35:00,56.6,56.0,29.77,West,275,0.0,0.0,98,0.00,,,0.00,Wunderground v.1.15,2013-08-06 10:35:00,
2013-08-06 06:40:00,56.6,56.0,29.77,West,275,0.0,1.0,98,0.00,,,0.00,Wunderground v.1.15,2013-08-06 10:40:00,
2013-08-06 06:50:00,56.9,56.3,29.77,West,275,1.0,1.0,98,0.00,,,0.00,Wunderground v.1.15,2013-08-06 10:50:00,
2013-08-06 07:00:00,57.2,56.6,29.77,West,275,0.0,0.0,98,0.00,,,0.00,Wunderground v.1.15,2013-08-06 11:00:00,
2013-08-06 07:05:00,57.4,56.8,29.77,West,275,0.0,0.0,98,0.00,,,0.00,Wunderground v.1.15,2013-08-06 11:05:00,
2013-08-06 07:15:00,57.5,56.9,29.77,West,275,0.0,0.0,98,0.00,,,0.00,Wunderground v.1.15,2013-08-06 11:15:00,
2013-08-06 07:20:00,57.7,57.1,29.77,West,275,0.0,0.0,98,0.00,,,0.00,Wunderground v.1.15,2013-08-06 11:20:00,
2013-08-06 07:30:00,58.0,57.4,29.77,West,275,0.0,0.0,98,0.00,,,0.00,Wunderground v.1.15,2013-08-06 11:30:00,
2013-08-06 07:35:00,58.2,57.6,29.77,West,275,0.0,0.0,98,0.00,,,0.00,Wunderground v.1.15,2013-08-06 11:35:00,
2013-08-06 07:45:00,58.5,57.9,29.76,West,275,0.0,0.0,98,0.00,,,0.00,Wunderground v.1.15,2013-08-06 11:45:00,
2013-08-06 07:55:00,59.0,58.4,29.77,West,275,0.0,2.0,98,0.00,,,0.00,Wunderground v.1.15,2013-08-06 11:55:00,
2013-08-06 08:00:00,59.4,58.8,29.77,West,275,0.0,1.0,98,0.00,,,0.00,Wunderground v.1.15,2013-08-06 12:00:00,
2013-08-06 08:05:00,60.0,59.4,29.77,West,275,1.0,2.0,98,0.00,,,0.00,Wunderground v.1.15,2013-08-06 12:05:00,
2013-08-06 08:15:00,61.1,60.0,29.77,SW,226,2.0,2.0,96,0.00,,,0.00,Wunderground v.1.15,2013-08-06 12:15:00,
2013-08-06 08:20:00,61.7,60.3,29.77,SW,226,2.0,2.0,95,0.00,,,0.00,Wunderground v.1.15,2013-08-06 12:20:00,
2013-08-06 08:30:00,62.3,59.6,29.77,SW,226,1.0,1.0,91,0.00,,,0.00,Wunderground v.1.15,2013-08-06 12:30:00,
2013-08-06 08:35:00,62.7,60.0,29.77,SW,221,1.0,1.0,91,0.00,,,0.00,Wunderground v.1.15,2013-08-06 12:35:00,
2013-08-06 08:45:00,64.3,61.0,29.77,South,188,1.0,3.0,89,0.00,,,0.00,Wunderground v.1.15,2013-08-06 12:45:00,
2013-08-06 08:55:00,65.8,60.8,29.77,South,188,2.0,4.0,84,0.00,,,0.00,Wunderground v.1.15,2013-08-06 12:55:00,
2013-08-06 09:06:00,66.8,61.1,29.77,South,189,2.0,3.0,82,0.00,,,0.00,Wunderground v.1.15,2013-08-06 13:06:00,
2013-08-06 09:15:00,67.7,61.3,29.77,South,189,2.0,2.0,80,0.00,,,0.00,Wunderground v.1.15,2013-08-06 13:15:00,
2013-08-06 09:25:00,68.8,61.3,29.78,South,189,1.0,2.0,77,0.00,,,0.00,Wunderground v.1.15,2013-08-06 13:25:00,
2013-08-06 09:35:00,69.6,62.1,29.78,SW,222,3.0,3.0,77,0.00,,,0.00,Wunderground v.1.15,2013-08-06 13:35:00,
2013-08-06 09:45:00,70.2,61.9,29.77,SW,227,2.0,3.0,75,0.00,,,0.00,Wunderground v.1.15,2013-08-06 13:45:00,
2013-08-06 09:50:00,70.7,61.2,29.77,SW,222,2.0,2.0,72,0.00,,,0.00,Wunderground v.1.15,2013-08-06 13:50:00,
2013-08-06 10:00:00,71.4,59.9,29.78,SSW,193,2.0,2.0,67,0.00,,,0.00,Wunderground v.1.15,2013-08-06 14:00:00,
2013-08-06 10:05:00,71.3,60.2,29.78,SSW,206,2.0,2.0,68,0.00,,,0.00,Wunderground v.1.15,2013-08-06 14:05:00,
2013-08-06 10:15:00,71.4,59.4,29.78,SSW,206,1.0,2.0,66,0.00,,,0.00,Wunderground v.1.15,2013-08-06 14:15:00,
2013-08-06 10:20:00,71.7,60.2,29.78,SSW,206,1.0,1.0,67,0.00,,,0.00,Wunderground v.1.15,2013-08-06 14:20:00,
2013-08-06 10:30:00,72.0,58.7,29.78,SSW,202,1.0,3.0,63,0.00,,,0.00,Wunderground v.1.15,2013-08-06 14:30:00,
2013-08-06 10:40:00,72.8,59.9,29.78,West,279,2.0,2.0,64,0.00,,,0.00,Wunderground v.1.15,2013-08-06 14:40:00,
2013-08-06 10:50:00,73.5,59.2,29.78,SE,140,2.0,2.0,61,0.00,,,0.00,Wunderground v.1.15,2013-08-06 14:50:00,
2013-08-06 11:00:00,73.7,59.9,29.78,SSW,203,2.0,3.0,62,0.00,,,0.00,Wunderground v.1.15,2013-08-06 15:00:00,
2013-08-06 11:06:00,73.8,59.0,29.78,SSW,203,1.0,3.0,60,0.00,,,0.00,Wunderground v.1.15,2013-08-06 15:06:00,
2013-08-06 11:15:00,74.0,59.2,29.78,South,189,2.0,3.0,60,0.00,,,0.00,Wunderground v.1.15,2013-08-06 15:15:00,
2013-08-06 11:20:00,73.8,57.6,29.78,SSW,198,3.0,3.0,57,0.00,,,0.00,Wunderground v.1.15,2013-08-06 15:20:00,
2013-08-06 11:30:00,73.7,58.5,29.77,WNW,290,2.0,2.0,59,0.00,,,0.00,Wunderground v.1.15,2013-08-06 15:30:00,
2013-08-06 11:40:00,74.0,57.8,29.77,South,178,1.0,1.0,57,0.00,,,0.00,Wunderground v.1.15,2013-08-06 15:40:00,
2013-08-06 11:45:00,74.4,59.1,29.77,South,178,1.0,1.0,59,0.00,,,0.00,Wunderground v.1.15,2013-08-06 15:45:00,
2013-08-06 11:55:00,75.1,59.3,29.77,South,173,2.0,2.0,58,0.00,,,0.00,Wunderground v.1.15,2013-08-06 15:55:00,
2013-08-06 12:06:00,75.8,59.5,29.77,South,169,1.0,3.0,57,0.00,,,0.00,Wunderground v.1.15,2013-08-06 16:06:00,
2013-08-06 12:15:00,76.1,61.7,29.77,SE,142,2.0,2.0,61,0.00,,,0.00,Wunderground v.1.15,2013-08-06 16:15:00,
2013-08-06 12:25:00,75.7,59.4,29.77,WSW,240,2.0,2.0,57,0.00,,,0.00,Wunderground v.1.15,2013-08-06 16:25:00,
2013-08-06 12:35:00,75.6,60.7,29.77,SSW,213,3.0,4.0,60,0.00,,,0.00,Wunderground v.1.15,2013-08-06 16:35:00,
2013-08-06 12:45:00,75.7,60.4,29.76,SSW,200,2.0,3.0,59,0.00,,,0.00,Wunderground v.1.15,2013-08-06 16:45:00,
2013-08-06 12:55:00,76.2,59.4,29.76,WNW,292,1.0,2.0,56,0.00,,,0.00,Wunderground v.1.15,2013-08-06 16:55:00,
2013-08-06 13:00:00,76.5,62.0,29.76,SW,223,1.0,2.0,61,0.00,,,0.00,Wunderground v.1.15,2013-08-06 17:00:00,
2013-08-06 13:05:00,76.5,60.1,29.76,SW,223,1.0,2.0,57,0.00,,,0.00,Wunderground v.1.15,2013-08-06 17:05:00,
2013-08-06 13:15:00,77.2,60.8,29.76,West,273,1.0,2.0,57,0.00,,,0.00,Wunderground v.1.15,2013-08-06 17:15:00,
2013-08-06 13:25:00,77.2,59.8,29.76,SW,223,2.0,3.0,55,0.00,,,0.00,Wunderground v.1.15,2013-08-06 17:25:00,
2013-08-06 13:30:00,77.2,58.2,29.76,West,271,2.0,2.0,52,0.00,,,0.00,Wunderground v.1.15,2013-08-06 17:30:00,
2013-08-06 13:35:00,77.0,61.6,29.76,SSE,155,2.0,2.0,59,0.00,,,0.00,Wunderground v.1.15,2013-08-06 17:35:00,
2013-08-06 13:45:00,77.1,61.2,29.76,SSW,206,3.0,4.0,58,0.00,,,0.00,Wunderground v.1.15,2013-08-06 17:45:00,
2013-08-06 13:55:00,77.6,61.2,29.77,West,261,2.0,2.0,57,0.00,,,0.00,Wunderground v.1.15,2013-08-06 17:55:00,
2013-08-06 14:00:00,78.0,60.0,29.77,West,263,1.0,1.0,54,0.00,,,0.00,Wunderground v.1.15,2013-08-06 18:00:00,
2013-08-06 14:06:00,78.2,59.7,29.77,WSW,246,1.0,2.0,53,0.00,,,0.00,Wunderground v.1.15,2013-08-06 18:06:00,
2013-08-06 14:15:00,78.1,61.1,29.76,NNE,19,1.0,2.0,56,0.00,,,0.00,Wunderground v.1.15,2013-08-06 18:15:00,
2013-08-06 14:25:00,76.9,60.0,29.77,WSW,253,1.0,2.0,56,0.00,,,0.00,Wunderground v.1.15,2013-08-06 18:25:00,
2013-08-06 14:30:00,76.7,59.8,29.77,SSW,196,2.0,2.0,56,0.00,,,0.00,Wunderground v.1.15,2013-08-06 18:30:00,
2013-08-06 14:40:00,77.6,61.2,29.76,ESE,106,1.0,1.0,57,0.00,,,0.00,Wunderground v.1.15,2013-08-06 18:40:00,
2013-08-06 14:50:00,78.5,62.5,29.76,ESE,107,1.0,1.0,58,0.00,,,0.00,Wunderground v.1.15,2013-08-06 18:50:00,
2013-08-06 15:00:00,79.1,64.0,29.75,NE,53,1.0,1.0,60,0.00,,,0.00,Wunderground v.1.15,2013-08-06 19:00:00,
2013-08-06 15:06:00,79.4,64.3,29.75,ESE,111,2.0,3.0,60,0.00,,,0.00,Wunderground v.1.15,2013-08-06 19:06:00,
2013-08-06 15:15:00,78.9,64.8,29.75,ENE,75,3.0,4.0,62,0.00,,,0.00,Wunderground v.1.15,2013-08-06 19:15:00,
2013-08-06 15:25:00,77.8,64.6,29.75,NE,44,5.0,5.0,64,0.00,,,0.00,Wunderground v.1.15,2013-08-06 19:25:00,
2013-08-06 15:35:00,76.9,63.3,29.75,NE,46,4.0,7.0,63,0.00,,,0.00,Wunderground v.1.15,2013-08-06 19:35:00,
2013-08-06 15:45:00,76.7,64.9,29.75,NNE,31,3.0,4.0,67,0.00,,,0.00,Wunderground v.1.15,2013-08-06 19:45:00,
2013-08-06 15:50:00,76.8,64.6,29.75,ENE,63,3.0,3.0,66,0.00,,,0.00,Wunderground v.1.15,2013-08-06 19:50:00,
2013-08-06 16:00:00,76.4,65.5,29.75,NE,37,3.0,3.0,69,0.00,,,0.00,Wunderground v.1.15,2013-08-06 20:00:00,
2013-08-06 16:05:00,76.8,65.0,29.75,ENE,57,3.0,7.0,67,0.00,,,0.00,Wunderground v.1.15,2013-08-06 20:05:00,
2013-08-06 16:15:00,76.9,65.5,29.75,East,88,4.0,4.0,68,0.00,,,0.00,Wunderground v.1.15,2013-08-06 20:15:00,
2013-08-06 16:20:00,77.1,65.3,29.75,East,79,4.0,4.0,67,0.00,,,0.00,Wunderground v.1.15,2013-08-06 20:20:00,
2013-08-06 16:30:00,77.3,64.6,29.75,North,11,3.0,6.0,65,0.00,,,0.00,Wunderground v.1.15,2013-08-06 20:30:00,
2013-08-06 16:35:00,77.1,64.9,29.75,ENE,59,3.0,6.0,66,0.00,,,0.00,Wunderground v.1.15,2013-08-06 20:35:00,
2013-08-06 16:45:00,77.3,64.6,29.75,NE,37,3.0,4.0,65,0.00,,,0.00,Wunderground v.1.15,2013-08-06 20:45:00,
2013-08-06 16:50:00,77.4,64.7,29.75,ENE,74,4.0,4.0,65,0.00,,,0.00,Wunderground v.1.15,2013-08-06 20:50:00,
2013-08-06 17:00:00,77.6,66.2,29.75,ENE,71,3.0,3.0,68,0.00,,,0.00,Wunderground v.1.15,2013-08-06 21:00:00,
2013-08-06 17:05:00,77.6,64.9,29.75,ENE,68,3.0,3.0,65,0.00,,,0.00,Wunderground v.1.15,2013-08-06 21:05:00,
2013-08-06 17:15:00,77.4,64.3,29.75,ENE,59,3.0,3.0,64,0.00,,,0.00,Wunderground v.1.15,2013-08-06 21:15:00,
2013-08-06 17:20:00,77.2,65.0,29.74,NNE,15,3.0,3.0,66,0.00,,,0.00,Wunderground v.1.15,2013-08-06 21:20:00,
2013-08-06 17:25:00,77.2,64.1,29.74,ENE,60,3.0,3.0,64,0.00,,,0.00,Wunderground v.1.15,2013-08-06 21:25:00,
2013-08-06 17:35:00,76.7,64.0,29.73,ENE,65,3.0,4.0,65,0.00,,,0.00,Wunderground v.1.15,2013-08-06 21:35:00,
2013-08-06 17:45:00,76.6,64.4,29.73,SSE,157,4.0,5.0,66,0.00,,,0.00,Wunderground v.1.15,2013-08-06 21:45:00,
2013-08-06 17:55:00,76.5,63.9,29.72,ENE,75,3.0,4.0,65,0.00,,,0.00,Wunderground v.1.15,2013-08-06 21:55:00,
2013-08-06 18:06:00,76.9,63.8,29.72,East,95,2.0,3.0,64,0.00,,,0.00,Wunderground v.1.15,2013-08-06 22:06:00,
2013-08-06 18:15:00,76.5,63.0,29.72,East,85,3.0,5.0,63,0.00,,,0.00,Wunderground v.1.15,2013-08-06 22:15:00,
2013-08-06 18:20:00,76.0,62.9,29.72,ENE,77,4.0,4.0,64,0.00,,,0.00,Wunderground v.1.15,2013-08-06 22:20:00,
2013-08-06 18:30:00,75.9,63.3,29.72,East,88,3.0,3.0,65,0.00,,,0.00,Wunderground v.1.15,2013-08-06 22:30:00,
2013-08-06 18:35:00,75.7,63.5,29.72,ENE,73,3.0,4.0,66,0.00,,,0.00,Wunderground v.1.15,2013-08-06 22:35:00,
2013-08-06 18:45:00,75.1,63.4,29.72,ENE,59,3.0,4.0,67,0.00,,,0.00,Wunderground v.1.15,2013-08-06 22:45:00,
2013-08-06 18:55:00,74.8,63.1,29.72,ENE,69,3.0,3.0,67,0.00,,,0.00,Wunderground v.1.15,2013-08-06 22:55:00,
2013-08-06 19:06:00,74.4,63.6,29.73,NE,53,2.0,2.0,69,0.00,,,0.00,Wunderground v.1.15,2013-08-06 23:06:00,
2013-08-06 19:15:00,74.0,63.6,29.73,NNE,31,2.0,2.0,70,0.00,,,0.00,Wunderground v.1.15,2013-08-06 23:15:00,
2013-08-06 19:20:00,73.8,63.4,29.73,East,93,2.0,2.0,70,0.00,,,0.00,Wunderground v.1.15,2013-08-06 23:20:00,
2013-08-06 19:25:00,73.5,63.5,29.73,East,94,2.0,2.0,71,0.00,,,0.00,Wunderground v.1.15,2013-08-06 23:25:00,
2013-08-06 19:35:00,72.8,63.6,29.73,ENE,59,2.0,2.0,73,0.00,,,0.00,Wunderground v.1.15,2013-08-06 23:35:00,
2013-08-06 19:45:00,71.9,63.2,29.72,ENE,76,1.0,2.0,74,0.00,,,0.00,Wunderground v.1.15,2013-08-06 23:45:00,
2013-08-06 19:55:00,71.2,62.9,29.72,ENE,74,1.0,1.0,75,0.00,,,0.00,Wunderground v.1.15,2013-08-06 23:55:00,
2013-08-06 20:05:00,70.5,62.9,29.72,ENE,72,1.0,1.0,77,0.00,,,0.00,Wunderground v.1.15,2013-08-07 00:05:00,
2013-08-06 20:15:00,69.9,62.7,29.73,ENE,72,0.0,1.0,78,0.00,,,0.00,Wunderground v.1.15,2013-08-07 00:15:00,
2013-08-06 20:25:00,69.4,63.3,29.72,ENE,72,0.0,0.0,81,0.00,,,0.00,Wunderground v.1.15,2013-08-07 00:25:00,
2013-08-06 20:35:00,68.7,63.0,29.72,ENE,72,0.0,0.0,82,0.00,,,0.00,Wunderground v.1.15,2013-08-07 00:35:00,
2013-08-06 20:45:00,68.1,62.7,29.73,ENE,72,0.0,1.0,83,0.00,,,0.00,Wunderground v.1.15,2013-08-07 00:45:00,
2013-08-06 20:50:00,67.8,62.4,29.73,ENE,72,0.0,0.0,83,0.00,,,0.00,Wunderground v.1.15,2013-08-07 00:50:00,
2013-08-06 20:55:00,67.6,62.3,29.73,ENE,72,0.0,0.0,83,0.00,,,0.00,Wunderground v.1.15,2013-08-07 00:55:00,
2013-08-06 21:06:00,67.4,62.4,29.73,East,82,0.0,0.0,84,0.00,,,0.00,Wunderground v.1.15,2013-08-07 01:06:00,
2013-08-06 21:15:00,67.2,62.2,29.73,East,82,0.0,0.0,84,0.00,,,0.00,Wunderground v.1.15,2013-08-07 01:15:00,
2013-08-06 21:25:00,67.0,62.0,29.73,East,82,0.0,0.0,84,0.00,,,0.00,Wunderground v.1.15,2013-08-07 01:25:00,
2013-08-06 21:30:00,67.0,62.3,29.73,East,82,0.0,0.0,85,0.00,,,0.00,Wunderground v.1.15,2013-08-07 01:30:00,
2013-08-06 21:40:00,66.8,62.1,29.73,East,82,1.0,1.0,85,0.00,,,0.00,Wunderground v.1.15,2013-08-07 01:40:00,
2013-08-06 21:50:00,66.8,62.1,29.74,East,82,0.0,0.0,85,0.00,,,0.00,Wunderground v.1.15,2013-08-07 01:50:00,
2013-08-06 22:00:00,66.8,62.5,29.73,East,82,0.0,0.0,86,0.00,,,0.00,Wunderground v.1.15,2013-08-07 02:00:00,
2013-08-06 22:05:00,66.7,62.4,29.73,East,82,1.0,1.0,86,0.00,,,0.00,Wunderground v.1.15,2013-08-07 02:05:00,
2013-08-06 22:15:00,66.6,62.3,29.72,East,82,0.0,0.0,86,0.00,,,0.00,Wunderground v.1.15,2013-08-07 02:15:00,
2013-08-06 22:20:00,66.5,62.5,29.72,East,82,0.0,1.0,87,0.00,,,0.00,Wunderground v.1.15,2013-08-07 02:20:00,
2013-08-06 22:30:00,66.3,62.3,29.72,East,82,0.0,0.0,87,0.00,,,0.00,Wunderground v.1.15,2013-08-07 02:30:00,
2013-08-06 22:40:00,66.2,62.5,29.72,East,82,0.0,0.0,88,0.00,,,0.00,Wunderground v.1.15,2013-08-07 02:40:00,
2013-08-06 22:50:00,66.1,62.8,29.71,East,82,0.0,1.0,89,0.00,,,0.00,Wunderground v.1.15,2013-08-07 02:50:00,
2013-08-06 22:55:00,66.1,62.8,29.71,ESE,104,0.0,1.0,89,0.00,,,0.00,Wunderground v.1.15,2013-08-07 02:55:00,
2013-08-06 23:05:00,66.2,62.9,29.71,ESE,104,0.0,2.0,89,0.00,,,0.00,Wunderground v.1.15,2013-08-07 03:05:00,
2013-08-06 23:15:00,66.2,63.2,29.71,ESE,104,0.0,0.0,90,0.00,,,0.00,Wunderground v.1.15,2013-08-07 03:15:00,
2013-08-06 23:25:00,66.2,63.2,29.70,ESE,104,0.0,0.0,90,0.00,,,0.00,Wunderground v.1.15,2013-08-07 03:25:00,
2013-08-06 23:35:00,66.1,63.1,29.70,ESE,104,0.0,0.0,90,0.00,,,0.00,Wunderground v.1.15,2013-08-07 03:35:00,
2013-08-06 23:45:00,66.1,63.4,29.69,ESE,104,0.0,0.0,91,0.00,,,0.00,Wunderground v.1.15,2013-08-07 03:45:00,
2013-08-06 23:55:00,66.0,63.3,29.69,ESE,104,0.0,0.0,91,0.00,,,0.00,Wunderground v.1.15,2013-08-07 03:55:00,